User: anonymous   Login
Location: Unspecified
(0.0000°N, 0.0000°E)
Time: 01:11:53
(UTC+01:00)
Language:

Cosmos 1703 - Orbit

View from above orbital plane
View from above orbital plane
View from above satellite
View from above satellite

Ground track
Ground track

The orbit data is extracted from the following two-line orbital elements,

1 16262U 85108A   17343.84098491  .00000035  00000-0  27677-6 0  9993
2 16262  82.4800  77.4221 0012566  36.7466 323.4623 15.10590360745410
Epoch (UTC): 09 December 2017 20:11:01
Eccentricity: 0.0012566
inclination: 82.4800°
perigee height: 526 km
apogee height: 543 km
right ascension of ascending node: 77.4221°
argument of perigee: 36.7466°
revolutions per day: 15.10590360
mean anomaly at epoch: 323.4623°
orbit number at epoch: 74541

The dashed part of the orbit path shows where the satellite is in the earth's shadow,  

DLR